{"data":{"norad_id":47275,"intl_designator":"2020-100T","name":"ONEWEB-0129","alt_names":[],"object_type":"PAYLOAD","status":"ACTIVE","operator":null,"country":"UK","launch_date":"2020-12-18","launch_site_code":"VOSTO","launch_vehicle":null,"mission":null,"orbit_class":"UNKNOWN","rcs_meters":null,"size_class":null,"mass_kg":null,"dimensions":null,"purposes":["comms"],"wikipedia_slug":null,"has_3d_model":false,"image_url":null,"decayed_at":null,"tle_current":{"epoch":"2026-09-20T03:42:09.398016Z","epoch_age_seconds":44397,"freshness":"FRESH","line1":"1 47275U 20100T   26263.15427544 -.00000283  00000+0 -82071-3 0  9994","line2":"2 47275  87.8983 331.8066 0000820 112.7616 247.3599 13.12443555277133","mean_motion":13.12443555,"eccentricity":8.2e-5,"inclination_deg":87.8983,"raan_deg":331.8066,"arg_perigee_deg":112.7616,"mean_anomaly_deg":247.3599,"bstar":-0.00082071,"rev_number":27713,"period_min":109.71900425843,"perigee_km":1213.0986184056,"apogee_km":1214.3436831424,"semimajor_km":7591.858150774,"source":"CELESTRAK","updated_at":"2026-09-20T09:00:44.579452Z"}}}